Weather History for Muscle Shoals, AL

Change the Weather History Date:

Wednesday, January 22, 2014

  Actual Average Record
Temperature  
Mean Temperature 27 °F 41 °F  
Max Temperature 38 °F 51 °F 75 °F (1937)
Min Temperature 15 °F 31 °F 9 °F (1961)
Degree Days  
Heating Degree Days 38 24  
Month to date heating degree days 601 528  
Since 1 July heating degree days 1860 1764  
Cooling Degree Days 0 0  
Month to date cooling degree days 0 0  
Year to date cooling degree days 0 0  
Moisture  
Dew Point 8 °F    
Average Humidity 50    
Maximum Humidity 74    
Minimum Humidity 25    
Precipitation  
Precipitation 0.00 in 0.15 in 2.46 in (2006)
Month to date precipitation 1.70 3.22  
Year to date precipitation 1.70 3.22  
Snow  
Snow 0.00 in - - ()
Month to date snowfall 0.0  
Since 1 July snowfall T  
Snow Depth 0.00 in    
Sea Level Pressure  
Sea Level Pressure 30.21 in    
Wind  
Wind Speed 5 mph (NNW)    
Max Wind Speed 15 mph    
Max Gust Speed 20 mph    
Visibility 10 miles    
Events      
T = Trace of Precipitation, MM = Missing Value Source: NWS Daily Summary

Daily Weather History Graph

Daily Weather History Graph

Search for Another Location

Airport:

Trip Planner

Search our weather history database for the weather conditions in past years. The results will help you decide how hot, cold, wet, or windy it might be!

Date:

Astronomy

Jan. 22, 2014 Rise Set
Actual Time 6:54 AM CST 5:09 PM CST
Civil Twilight 6:27 AM CST 5:36 PM CST
Nautical Twilight 5:57 AM CST 6:07 PM CST
Astronomical Twilight 5:27 AM CST 6:37 PM CST
Moon 11:23 PM CST (1/22) 10:12 AM CST (1/22)
Length of Visible Light 11h 08m
Length of Day
10h 14m
Waning Gibbous, 65% of the Moon is Illuminated
Jan 22
Waning Gibbous
Jan 23
Last Quarter
Jan 30
New
Feb 6
First Quarter
Feb 14
Full

Hourly Weather History & Observations

Time (CST) Temp. Windchill Dew Point Humidity Pressure Visibility Wind Dir Wind Speed Gust Speed Precip Events Conditions
12:53 AM 19.9 °F 11.1 °F 3.9 °F 50% 30.23 in 10.0 mi North 6.9 mph - N/A   Clear
1:53 AM 19.0 °F 6.8 °F 3.9 °F 52% 30.22 in 10.0 mi NNE 11.5 mph 16.1 mph N/A   Clear
2:53 AM 19.0 °F 11.1 °F 5.0 °F 54% 30.23 in 10.0 mi NNW 5.8 mph - N/A   Mostly Cloudy
3:53 AM 19.0 °F 12.3 °F 6.1 °F 57% 30.23 in 10.0 mi North 4.6 mph - N/A   Overcast
4:53 AM 19.0 °F 10.0 °F 5.0 °F 54% 30.22 in 10.0 mi ENE 6.9 mph - N/A   Overcast
5:53 AM 18.0 °F - 6.1 °F 60% 30.23 in 10.0 mi Calm Calm - N/A   Overcast
6:53 AM 15.1 °F 9.4 °F 7.0 °F 70% 30.23 in 10.0 mi East 3.5 mph - N/A   Clear
7:53 AM 19.0 °F - 8.1 °F 62% 30.23 in 10.0 mi Calm Calm - N/A   Clear
8:53 AM 19.9 °F 14.9 °F 7.0 °F 57% 30.26 in 10.0 mi ENE 3.5 mph - N/A   Clear
9:53 AM 23.0 °F - 8.1 °F 53% 30.25 in 10.0 mi Calm Calm - N/A   Clear
10:53 AM 26.1 °F 19.4 °F 7.0 °F 44% 30.22 in 10.0 mi East 5.8 mph - N/A   Clear
11:53 AM 30.0 °F - 5.0 °F 35% 30.19 in 10.0 mi Calm Calm - N/A   Clear
12:53 PM 34.0 °F 27.2 °F 3.9 °F 28% 30.15 in 10.0 mi WNW 8.1 mph - N/A   Clear
1:53 PM 36.0 °F 28.0 °F 3.9 °F 26% 30.13 in 10.0 mi WNW 11.5 mph - N/A   Clear
2:53 PM 37.0 °F 29.8 °F 5.0 °F 26% 30.12 in 10.0 mi WNW 10.4 mph 19.6 mph N/A   Clear
3:53 PM 37.0 °F 29.3 °F 6.1 °F 28% 30.12 in 10.0 mi West 11.5 mph - N/A   Clear
4:53 PM 35.1 °F 28.6 °F 9.0 °F 34% 30.15 in 10.0 mi West 8.1 mph - N/A   Clear
5:53 PM 30.9 °F 25.2 °F 9.0 °F 40% 30.17 in 10.0 mi West 5.8 mph - N/A   Clear
6:53 PM 30.0 °F - 9.0 °F 41% 30.19 in 10.0 mi Calm Calm - N/A   Clear
7:53 PM 28.0 °F - 10.0 °F 47% 30.21 in 10.0 mi Calm Calm - N/A   Clear
8:53 PM 25.0 °F 20.7 °F 12.0 °F 58% 30.23 in 10.0 mi WSW 3.5 mph - N/A   Clear
9:53 PM 23.0 °F - 15.1 °F 72% 30.24 in 10.0 mi Calm Calm - N/A   Clear
10:53 PM 23.0 °F - 12.9 °F 65% 30.25 in 10.0 mi Calm Calm - N/A   Clear
11:53 PM 21.9 °F - 12.9 °F 68% 30.25 in 10.0 mi Calm Calm - N/A   Clear